[[{"header":{"parameterUnit":"m.s-1","parameterCategory":1,"la1":30.2991,"la2":30.254,"lo1":-89.0895,"lo2":-89.0444,"dy":0.0017,"dx":0.0017,"nx":28,"ny":28,"refTime":"2023-10-31T21:00:00:Z","depth":0,"parameterNumber":2,"parameterNumberName":"U-component_of_WINDS"},"data":[0,0,0,0,0,0,0,0,0,0,0,0,0,0,0,0,0,0,0,0,0,0,0,0,0,0,0,0,0,0,0,0,0,0,0,0,0,0,0,0,0,0,0,0,0,0,0,0,0,0,0,0,0,0,0,0,0,0,-2.2813,-2.2813,0,-2.287,-2.287,-2.2871,-2.2813,-2.2811,-2.2809,-2.2807,-2.2864,-2.2868,-2.2871,0,0,0,0,0,0,0,0,0,0,0,0,0,-2.2652,-2.2655,-2.2813,-2.2813,-2.2814,-2.287,-2.287,-2.2871,-2.2814,-2.2811,-2.2808,-2.2806,-2.2863,-2.2867,-2.2872,0,0,0,0,0,0,0,0,0,0,0,0,0,-2.2717,-2.2656,-2.2813,-2.2792,-2.2791,-2.287,-2.287,-2.2871,-2.2814,-2.2811,-2.2807,-2.2804,-2.2862,-2.2867,-2.2872,-2.2974,0,0,-2.2889,-2.2891,0,0,0,0,0,0,0,0,-2.2713,-2.2723,-2.2794,-2.2794,-2.2792,-2.2831,-2.2835,-2.2906,-2.2815,-2.2805,-2.2807,-2.2803,-2.2856,-2.2862,-2.288,-2.2976,-2.2979,-2.2889,-2.2893,-2.2895,-2.2897,0,0,0,0,0,0,0,-2.2709,-2.272,-2.2835,-2.2796,-2.2794,-2.2779,-2.2785,-2.2848,-2.2849,-2.2806,-2.2802,-2.281,-2.2855,-2.2875,-2.2881,-2.298,-2.2889,-2.2894,-2.2897,-2.29,-2.3161,-2.3164,0,0,0,0,0,0,-2.2707,-2.2716,-2.2833,-2.2837,-2.2744,-2.2785,-2.2791,-2.2822,-2.2848,-2.2849,-2.2812,-2.2807,-2.2867,-2.2874,-2.2882,-2.3002,-2.2895,-2.29,-2.2903,-2.3157,-2.3162,-2.3166,0,0,0,0,0,0,-2.2703,-2.2718,-2.2831,-2.2776,-2.2789,-2.2791,-2.2827,-2.2825,-2.2845,-2.2853,-2.2853,-2.2833,-2.2865,-2.2875,-2.2951,-2.3003,-2.2903,-2.2908,-2.3153,-2.3158,-2.3164,-2.3243,0,0,0,0,0,0,-2.2699,-2.2717,-2.2756,-2.2777,-2.2792,-2.29,-2.283,-2.2828,-2.2854,-2.2848,-2.2872,-2.2873,-2.2863,-2.2943,-2.2957,-2.3009,-2.2912,-2.3148,-2.3155,-2.3162,-2.3235,-2.325,-2.3263,0,0,0,0,0,-2.2693,-2.2776,-2.2758,-2.2773,-2.2841,-2.2903,-2.2912,-2.2899,-2.2859,-2.2898,-2.2903,-2.2872,-2.2995,-2.2952,-2.2966,-2.3021,-2.3145,-2.3153,-2.3161,-2.3229,-2.3247,-2.3262,0,0,0,0,0,0,-2.2761,-2.2778,-2.2759,-2.2851,-2.2876,-2.2893,-2.2942,-2.2918,-2.2955,-2.2947,-2.2929,-2.2935,-2.3016,-2.3026,-2.2977,-2.3119,-2.3063,-2.3075,-2.311,-2.3127,-2.3141,-2.3137,-2.2916,0,0,0,0,0,-2.2787,-2.2836,-2.2848,-2.2928,-2.2942,-2.294,-2.2966,-2.2954,-2.2979,-2.2989,-2.3,-2.3025,-2.3069,-2.3099,-2.314,-2.3236,-2.324,-2.3281,-2.3295,-2.3306,-2.3316,-2.3367,-2.3385,-2.3193,-2.3193,-2.3192,0,0,-2.284,-2.2856,-2.2888,-2.2942,-2.296,-2.3011,-2.2949,-2.3006,-2.3043,-2.2998,-2.307,-2.3079,-2.3106,-2.3192,-2.3231,-2.3203,-2.337,-2.3316,-2.3325,-2.3329,-2.3377,-2.3395,-2.3411,-2.3198,-2.3197,-2.3196,0,0,-2.2963,-2.2981,-2.3049,-2.3068,-2.3095,-2.3093,-2.311,-2.313,-2.3134,-2.3207,-2.3174,-2.3217,-2.3294,-2.3314,-2.3335,-2.3464,-2.3437,-2.3478,-2.355,-2.3599,-2.3614,-2.3627,-2.3673,-2.369,-2.3488,-2.3488,-2.3488,0,-2.3026,-2.3102,-2.3086,-2.3145,-2.3169,-2.3131,-2.3199,-2.3218,-2.3258,-2.3275,-2.3243,-2.3338,-2.3354,-2.3444,-2.3475,-2.3493,-2.351,-2.3475,-2.3613,-2.3626,-2.3639,-2.3682,-2.3699,-2.3493,-2.3492,-2.3492,-2.3491,0,-2.3177,-2.323,-2.3282,-2.3321,-2.3351,-2.3414,-2.3407,-2.344,-2.3424,-2.3425,-2.3499,-2.3516,-2.3559,-2.358,-2.3566,-2.3668,-2.365,-2.3616,-2.3559,-2.3662,-2.3702,-2.3719,-2.35,-2.3498,-2.3497,-2.3495,0,0,-2.3346,-2.3375,-2.3394,-2.3411,-2.3438,-2.3479,-2.3539,-2.3582,-2.3609,-2.3638,-2.3688,-2.3753,-2.3722,-2.3745,-2.3732,-2.3776,-2.3876,-2.3736,-2.3737,-2.3761,-2.3988,-2.4014,-2.4033,-2.3858,-2.3861,-2.3863,-2.3986,0,-2.347,-2.3576,-2.3563,-2.3664,-2.3712,-2.3675,-2.3728,-2.375,-2.3752,-2.3792,-2.3794,-2.3841,-2.3796,-2.381,-2.3851,-2.3855,-2.3921,-2.3846,-2.3903,-2.3906,-2.3898,-2.4054,-2.4081,-2.4196,-2.4002,-2.4004,-2.4006,0,-2.3628,-2.3662,-2.3768,-2.3787,-2.3807,-2.3854,-2.3892,-2.3931,-2.3955,-2.3953,-2.3978,-2.3958,-2.4017,-2.3959,-2.4041,-2.399,-2.4013,-2.4018,-2.4022,-2.4027,-2.3962,-2.4063,-2.4233,-2.425,-2.4031,-2.4029,-2.4027,0,-2.374,-2.3812,-2.3884,-2.39,-2.3924,-2.3958,-2.397,-2.399,-2.4016,-2.4048,-2.4065,-2.4103,-2.4125,-2.4155,-2.4145,-2.4104,-2.4228,-2.417,-2.4228,-2.4228,-2.4256,-2.4255,-2.4432,-2.4271,-2.4271,-2.4271,-2.427,0,-2.3879,-2.3945,-2.3935,-2.3979,-2.4052,-2.4036,-2.4108,-2.4115,-2.4133,-2.4177,-2.4148,-2.419,-2.4174,-2.4215,-2.4208,-2.4276,-2.4286,-2.4286,-2.4283,-2.4288,-2.4288,-2.4303,-2.4295,-2.4275,-2.4274,-2.4273,-2.4273,0,-2.4016,-2.4012,-2.4088,-2.4104,-2.411,-2.4163,-2.4176,-2.4217,-2.4217,-2.4273,-2.4286,-2.4285,-2.4331,-2.4324,-2.4376,-2.4371,-2.4456,-2.4444,-2.4448,-2.4445,-2.4504,-2.4498,-2.4696,-2.4721,-2.4545,-2.4547,-2.4548,0,-2.4106,-2.4155,-2.4177,-2.4205,-2.4218,-2.4264,-2.429,-2.4275,-2.4304,-2.4334,-2.4371,-2.4415,-2.445,-2.4526,-2.4529,-2.4568,-2.4556,-2.4623,-2.4562,-2.4566,-2.4557,-2.4554,-2.4558,-2.4635,-2.4637,-2.4639,-2.464,0,-2.4264,-2.4259,-2.4298,-2.4337,-2.4369,-2.4398,-2.4425,-2.4449,-2.4437,-2.447,-2.4517,-2.4544,-2.4597,-2.464,-2.4677,-2.4687,-2.4662,-2.4659,-2.4675,-2.4681,-2.4681,-2.4681,-2.4481,-2.4655,-2.4653,-2.4652,-2.4652,-2.4651,-2.4379,-2.4422,-2.4443,-2.4487,-2.4506,-2.4531,-2.457,-2.4574,-2.4614,-2.4655,-2.4644,-2.4698,-2.4718,-2.4765,-2.4779,-2.482,-2.4796,-2.4818,-2.4824,-2.483,-2.4836,-2.4675,-2.4827,-2.4827,-2.4826,-2.4826,-2.4826,0,-2.4536,-2.4548,-2.4588,-2.4626,-2.4661,-2.4634,-2.4661,-2.4692,-2.4739,-2.4761,-2.4795,-2.4849,-2.4891,-2.4897,-2.4937,-2.4968,-2.4957,-2.4979,-2.4977,-2.4979,-2.4857,-2.4839,-2.4987,-2.4987,-2.4987,-2.4987,-2.4987,-2.4987,-2.4621,-2.4691,-2.4689,-2.4767,-2.4777,-2.483,-2.4848,-2.487,-2.4887,-2.4949,-2.4984,-2.4988,-2.5003,-2.5043,-2.508,-2.5081,-2.5096,-2.5123,-2.5119,-2.5004,-2.4988,-2.4973,-2.4956,-2.5126,-2.5126,-2.5238,-2.5239,-2.5239]},{"header":{"parameterUnit":"m.s-1","parameterCategory":1,"la1":30.2991,"la2":30.254,"lo1":-89.0895,"lo2":-89.0444,"dy":0.0017,"dx":0.0017,"nx":28,"ny":28,"refTime":"2023-10-31T21:00:00:Z","depth":0,"parameterNumber":3,"parameterNumberName":"V-component_of_WINDS"},"data":[0,0,0,0,0,0,0,0,0,0,0,0,0,0,0,0,0,0,0,0,0,0,0,0,0,0,0,0,0,0,0,0,0,0,0,0,0,0,0,0,0,0,0,0,0,0,0,0,0,0,0,0,0,0,0,0,0,0,-6.8467,-6.8469,0,-6.8579,-6.8581,-6.8582,-6.8489,-6.8485,-6.8481,-6.8477,-6.8586,-6.8592,-6.8598,0,0,0,0,0,0,0,0,0,0,0,0,0,-6.8164,-6.817,-6.8467,-6.8469,-6.847,-6.8579,-6.8581,-6.8582,-6.8489,-6.8485,-6.848,-6.8475,-6.8583,-6.8591,-6.8599,0,0,0,0,0,0,0,0,0,0,0,0,0,-6.8288,-6.8172,-6.8467,-6.8437,-6.8435,-6.8579,-6.8581,-6.8583,-6.849,-6.8485,-6.8479,-6.8473,-6.8581,-6.859,-6.86,-6.8777,0,0,-6.863,-6.8634,0,0,0,0,0,0,0,0,-6.8281,-6.8299,-6.844,-6.8439,-6.8438,-6.8514,-6.8514,-6.8648,-6.8492,-6.8469,-6.8477,-6.847,-6.8566,-6.8577,-6.861,-6.8782,-6.8787,-6.8631,-6.8637,-6.8641,-6.8643,0,0,0,0,0,0,0,-6.8273,-6.8294,-6.8511,-6.8442,-6.8441,-6.8415,-6.8426,-6.8538,-6.8549,-6.8471,-6.8464,-6.8479,-6.8564,-6.8601,-6.8612,-6.8788,-6.863,-6.8639,-6.8645,-6.8649,-6.9107,-6.9113,0,0,0,0,0,0,-6.8268,-6.8287,-6.8508,-6.8515,-6.8344,-6.8425,-6.8438,-6.8495,-6.8547,-6.855,-6.8484,-6.8475,-6.8587,-6.8601,-6.8616,-6.8824,-6.8641,-6.865,-6.8655,-6.9101,-6.9108,-6.9115,0,0,0,0,0,0,-6.8262,-6.8289,-6.8503,-6.8399,-6.8425,-6.8437,-6.8502,-6.8501,-6.8538,-6.8558,-6.8558,-6.8521,-6.8583,-6.8602,-6.8737,-6.8826,-6.8654,-6.8663,-6.9093,-6.9103,-6.9112,-6.9244,0,0,0,0,0,0,-6.8254,-6.8287,-6.8357,-6.8402,-6.8431,-6.8626,-6.8508,-6.8507,-6.8555,-6.8544,-6.8592,-6.8594,-6.858,-6.8723,-6.8747,-6.8837,-6.8671,-6.9085,-6.9097,-6.9109,-6.9231,-6.9256,-6.9278,0,0,0,0,0,-6.8243,-6.8388,-6.8361,-6.8388,-6.8518,-6.8631,-6.8647,-6.8631,-6.8563,-6.8631,-6.8644,-6.8592,-6.8813,-6.8738,-6.8764,-6.8858,-6.9079,-6.9094,-6.9108,-6.9221,-6.9251,-6.9277,0,0,0,0,0,0,-6.8351,-6.8394,-6.8363,-6.8528,-6.8577,-6.8615,-6.8701,-6.8664,-6.8731,-6.8717,-6.8691,-6.8703,-6.8845,-6.8865,-6.878,-6.903,-6.8935,-6.8955,-6.9012,-6.9041,-6.9064,-6.9056,-6.8679,0,0,0,0,0,-6.8395,-6.8486,-6.8517,-6.8659,-6.8685,-6.8689,-6.8738,-6.8721,-6.8769,-6.8789,-6.8811,-6.8858,-6.8938,-6.8991,-6.9065,-6.9234,-6.9241,-6.9311,-6.9334,-6.9353,-6.9371,-6.9458,-6.9489,-6.9162,-6.9162,-6.9161,0,0,-6.8485,-6.8519,-6.8578,-6.8681,-6.8717,-6.8809,-6.8707,-6.8809,-6.8876,-6.8803,-6.8933,-6.8951,-6.9001,-6.9154,-6.9222,-6.9174,-6.9463,-6.9372,-6.9387,-6.9393,-6.9476,-6.9507,-6.9534,-6.9171,-6.917,-6.9168,0,0,-6.8695,-6.8732,-6.8853,-6.8891,-6.8947,-6.8949,-6.8978,-6.9022,-6.9032,-6.9161,-6.9108,-6.9186,-6.9325,-6.9362,-6.9399,-6.9622,-6.9576,-6.9647,-6.9768,-6.9854,-6.988,-6.9902,-6.998,-7.0008,-6.9664,-6.9665,-6.9665,0,-6.8799,-6.8938,-6.8919,-6.9025,-6.9071,-6.9011,-6.9132,-6.9169,-6.9246,-6.9277,-6.9224,-6.9395,-6.9425,-6.9584,-6.9639,-6.9672,-6.9701,-6.9641,-6.9878,-6.9901,-6.9921,-6.9994,-7.0024,-6.9673,-6.9672,-6.9671,-6.967,0,-6.9061,-6.9158,-6.9249,-6.9326,-6.9382,-6.9495,-6.9491,-6.9549,-6.9527,-6.9533,-6.9664,-6.9698,-6.9777,-6.9814,-6.9793,-6.9969,-6.9938,-6.9882,-6.9786,-6.9961,-7.0029,-7.0057,-6.9684,-6.9681,-6.9679,-6.9677,0,0,-6.9343,-6.9408,-6.9442,-6.9475,-6.9532,-6.9605,-6.9713,-6.9793,-6.9842,-6.9897,-6.9985,-7.0103,-7.0052,-7.0094,-7.0076,-7.0152,-7.0323,-7.0086,-7.0086,-7.0127,-7.0516,-7.0557,-7.059,-7.0293,-7.0299,-7.0303,-7.0511,0,-6.9554,-6.9745,-6.9731,-6.991,-6.9998,-6.9942,-7.0036,-7.0079,-7.0088,-7.0161,-7.0169,-7.0252,-7.0179,-7.0204,-7.0276,-7.0287,-7.04,-7.0272,-7.0372,-7.0376,-7.036,-7.0626,-7.0669,-7.0864,-7.0538,-7.0543,-7.0546,0,-6.9826,-6.9891,-7.008,-7.0122,-7.0158,-7.0243,-7.0313,-7.0385,-7.0432,-7.0432,-7.048,-7.0449,-7.0555,-7.0457,-7.0601,-7.0514,-7.0554,-7.0565,-7.0572,-7.058,-7.0471,-7.0638,-7.0926,-7.0955,-7.0588,-7.0585,-7.0582,0,-7.0009,-7.0145,-7.0274,-7.0305,-7.0358,-7.0418,-7.0443,-7.0484,-7.0532,-7.0593,-7.0623,-7.0695,-7.0734,-7.0789,-7.0776,-7.0707,-7.0923,-7.0825,-7.0923,-7.0924,-7.097,-7.0967,-7.1267,-7.1,-7.0999,-7.0999,-7.0998,0,-7.0245,-7.0362,-7.0357,-7.0437,-7.0565,-7.0547,-7.0673,-7.069,-7.0727,-7.0807,-7.0762,-7.0837,-7.0818,-7.0891,-7.0882,-7.1001,-7.1019,-7.1021,-7.1016,-7.1024,-7.1023,-7.1048,-7.1034,-7.1006,-7.1005,-7.1003,-7.1002,0,-7.0472,-7.0474,-7.0611,-7.065,-7.0662,-7.0755,-7.0786,-7.086,-7.0865,-7.0966,-7.0988,-7.0995,-7.1079,-7.1073,-7.1167,-7.1161,-7.1307,-7.1288,-7.1292,-7.1287,-7.1386,-7.1376,-7.1711,-7.1752,-7.146,-7.1463,-7.1465,0,-7.0622,-7.071,-7.0759,-7.081,-7.0839,-7.0922,-7.0971,-7.0955,-7.1007,-7.1066,-7.1132,-7.1213,-7.1276,-7.1412,-7.1424,-7.1495,-7.1476,-7.1588,-7.1486,-7.149,-7.1475,-7.1469,-7.1476,-7.1608,-7.1611,-7.1614,-7.1616,0,-7.0886,-7.0882,-7.0956,-7.103,-7.109,-7.1147,-7.1198,-7.1242,-7.1231,-7.1291,-7.1378,-7.1427,-7.1523,-7.1603,-7.167,-7.1692,-7.1651,-7.1648,-7.1674,-7.1682,-7.168,-7.168,-7.1345,-7.164,-7.1638,-7.1636,-7.1635,-7.1634,-7.1077,-7.1153,-7.1199,-7.1281,-7.1319,-7.1368,-7.1438,-7.1452,-7.1525,-7.1603,-7.1589,-7.1685,-7.1727,-7.1814,-7.1842,-7.1915,-7.1874,-7.1913,-7.1922,-7.1931,-7.1942,-7.167,-7.1927,-7.1927,-7.1926,-7.1925,-7.1925,0,-7.1338,-7.1364,-7.1441,-7.1515,-7.1579,-7.1538,-7.1592,-7.1648,-7.1734,-7.1778,-7.1841,-7.1939,-7.2015,-7.2033,-7.2105,-7.216,-7.2143,-7.218,-7.2174,-7.2179,-7.1975,-7.1945,-7.2192,-7.2192,-7.2192,-7.2192,-7.2192,-7.2192,-7.1481,-7.1606,-7.1607,-7.1749,-7.1774,-7.1869,-7.1904,-7.1947,-7.1982,-7.2094,-7.2158,-7.217,-7.2202,-7.2276,-7.2343,-7.2346,-7.2373,-7.2417,-7.2412,-7.2221,-7.2194,-7.2169,-7.2139,-7.2424,-7.2424,-7.261,-7.2611,-7.2613]}]]